Regional Weather Roundup
Issued by NWS

Home | Current Version | Previous Version | Text Only | Print | Product List | Glossary On
Versions: 1 2 3 4 5 6 7 8 9 10 11 12 13 14 15 16 17 18 19 20 21 22 23 24 25 26 27
000
ASUS45 KBOU 241007
RWRCO

WEATHER ROUNDUP FOR COLORADO
NATIONAL WEATHER SERVICE DENVER/BOULDER CO
300 AM MST TUE JAN 24 2017

NOTE: "FAIR" INDICATES FEW OR NO CLOUDS BELOW 12000 FEET WITH NO
SIGNIFICANT WEATHER AND/OR OBSTRUCTIONS TO VISIBILITY.

COZ001>005-013-030-031-241100-
...NORTHWEST COLORADO...

CITY           SKY/WX    TMP DP  RH WIND       PRES   REMARKS
CRAIG          CLOUDY    27  18  69 SW5       29.53S WCI  22
HAYDEN         MOCLDY    23  16  74 CALM      29.53S
MEEKER         CLOUDY    27  18  69 W5        29.53S WCI  22
MOUNT WERNER   NOT AVBL
STEAMBOAT SPGS NOT AVBL
WALDEN           N/A     14   9  79 SE5       29.51F WCI   6
$$

COZ006>008-011-241100-
...WEST CENTRAL VALLEYS...

CITY           SKY/WX    TMP DP  RH WIND       PRES   REMARKS
GRAND JUNCTION MOCLDY    28  28 100 CALM      29.56R
MONTROSE       MOCLDY    29  24  82 S5        29.56F WCI  24
EAGLE          FAIR      16  14  92 CALM      29.57S
RIFLE          MOCLDY    26  24  92 E5        29.55S WCI  20
DELTA          FAIR      32  28  85 CALM      29.56F
NUCLA          MOCLDY    30  25  80 NW3       29.61R
$$

COZ017>023-064>068-241100-
...SOUTHWEST COLORADO...

CITY           SKY/WX    TMP DP  RH WIND       PRES   REMARKS
DURANGO        CLOUDY    21  17  84 N7        29.59R WCI  12
CORTEZ         CLOUDY    23  22  96 CALM      29.60R
PAGOSA SPRINGS FOG       24  23  99 CALM      29.58S VSB 1/2
TELLURIDE      CLOUDY    18  17  94 CALM      29.53F
WOLF CREEK PAS CLOUDY     9   9 100 SW16G28   29.53F WCI  -9
$$

COZ009-010-012-014-032>034-037-058>063-241100-
...CENTRAL COLORADO...

CITY           SKY/WX    TMP DP  RH WIND       PRES   REMARKS
ASPEN          FAIR      14  10  84 SW7       29.51S WCI   4
BUENA VISTA    FAIR       8   5  86 NW3       29.52R
COPPER MTN     FAIR      12   5  73 MISG      29.44F
BERTHOUD PASS  FAIR       3  -8  60 MISG      29.43F
COTTONWOOD PAS FAIR      19   9  63 W10       29.50R WCI   8
GUNNISON       FAIR      14  10  84 N8        29.55  WCI   3
KREMMLING      FAIR      18  12  79 SE6       29.54S WCI   9
LEADVILLE      FAIR       6   2  83 NE5       29.46F WCI  -3
MONARCH PASS   CLOUDY     9   3  78 SW3       29.57F
SALIDA         FAIR      24  13  61 NW10      29.59F WCI  14
SUNLIGHT         N/A     10   9  92 SW5       29.53S WCI   2
WILKERSON PASS NOT AVBL
$$

COZ069>075-241100-
...SAN LUIS VALLEY/SANGRE DE CRISTO MOUNTAINS...

CITY           SKY/WX    TMP DP  RH WIND       PRES   REMARKS
ALAMOSA        CLOUDY    23  21  92 E3        29.53F
LA VETA PASS   LGT SNOW  21  18  86 N12G22    29.50F WCI   9
SAGUACHE       FAIR      19  12  73 N7        29.53F WCI  10
$$

COZ035-036-038>040-241100-
...NORTHERN COLORADO FRONT RANGE...

CITY           SKY/WX    TMP DP  RH WIND       PRES   REMARKS
DENVER INTL AP CLOUDY    31  28  89 NW9       29.49F WCI  23
DMNS CITY PARK   N/A     33  27  80 N3        29.50F
AURORA         CLOUDY    29  29  99 W8        29.50F WCI  21
FRONT RANGE AP MOCLDY    30  28  93 W7        29.49F WCI  23
ERIE MUNI ARPT FAIR      28  27  97 CALM      29.51F
BOULDER MUN AP FAIR      30  28  93 SE5       29.49F WCI  25
CENTENNIAL     FAIR      28  25  88 N6        29.48F WCI  22
BROOMFIELD     FAIR      30  28  93 N6        29.50S WCI  24
FORT COLLINS   FAIR      27  26  96 NE6       29.52S WCI  20
LONGMONT       FAIR      28  26  89 CALM      29.53S
$$

COZ041-046-047-076>085-087-088-241100-
...PIKES PEAK/PALMER DIVIDE AND SOUTHERN FOOTHILLS...

CITY           SKY/WX    TMP DP  RH WIND       PRES   REMARKS
COLO. SPRINGS  MOCLDY    31  23  72 N13       29.46F WCI  21
A. F. ACADEMY  FAIR      26  22  85 N6        29.46F WCI  19
SCHRIEVER AFB  MOCLDY    31  25  77 N13       29.46F WCI  22
ELLICOTT       MOCLDY   N/A N/A N/A N9        29.44F
FALCON         FAIR      29  24  81 N6        29.47F WCI  23
FORT CARSON    FAIR      35  20  56 NW5       29.45S WCI  31
LIMON          CLOUDY    30  27  88 W17G23    29.46F WCI  18
MONUMENT HILL  FAIR      23  21  93 CALM      29.49S
TRINIDAD       MOCLDY    37  30  75 W8        29.52R
$$

COZ042>045-048>051-090-091-241100-
...NORTHEAST COLORADO...

CITY           SKY/WX    TMP DP  RH WIND       PRES   REMARKS
GREELEY ARPT   FAIR      30  29  96 NW10      29.52F WCI  21
AKRON          CLOUDY    29  26  89 N15       29.46F WCI  18
BURLINGTON     FAIR      31  28  89 W9        29.43F WCI  23
WRAY           NOT AVBL
STERLING       CLOUDY    32  30  93 NE12      29.53R WCI  23
HOLYOKE        CLOUDY    34  32  93 NE10      29.51R WCI  26
FORT MORGAN    MOCLDY    33  30  90 NE12      29.47F WCI  24
$$

COZ086-089-092>099-241100-
...SOUTHEAST COLORADO...

CITY           SKY/WX    TMP DP  RH WIND       PRES   REMARKS
PUEBLO         FAIR      40  22  48 VRB5      29.47R
LA JUNTA       MOCLDY    38  31  76 W10       29.47R
LAMAR          CLOUDY    35  29  78 SW3       29.43F
SPRINGFIELD      N/A     31  27  85 SW9       29.44F WCI  23
$$




USA.gov is the U.S. government's official web portal to all federal, state and local government web resources and services.